Location: Camps Bay
(33.9517°S, 18.3844°E)
Time: 16:00:20
(UTC+00:00)

CZ-2D R/B - Pass Details

Date: 18 January 2020
Orbit: 552 x 639 km, 97.9° (Epoch: 18 February)

Event Time Altitude Azimuth Distance (km) Brightness Sun altitude
Exits shadow 01:05:40 45° 192° (SSW) 832 4.4 -27.3°
Drops below altitude 10° 01:08:44 10° 192° (SSW) 1,991 6.7 -27.0°
Sets 01:10:58 0° 191° (SSW) 2,918 7.6 -26.7°
